Regional Weather Roundup
Issued by NWS

Home | Current Version | Previous Version | Text Only | Print | Product List | Glossary On
Versions: 1 2 3 4 5 6 7 8 9 10 11 12 13 14 15 16 17 18 19 20 21 22 23 24 25 26 27 28 29 30 31 32 33 34 35 36 37 38 39 40 41 42 43 44 45 46 47 48 49 50
000
ASUS43 KBIS 271120
RWRND

NORTH DAKOTA REGIONAL WEATHER ROUNDUP
NATIONAL WEATHER SERVICE BISMARCK ND
500 AM CST FRI FEB 27 2015

NOTE: "FAIR" INDICATES FEW OR NO CLOUDS BELOW 12,000 FEET WITH NO
SIGNIFICANT WEATHER AND/OR OBSTRUCTIONS TO VISIBILITY.


NDZ001>003-009>011-017-271200-
NORTHWEST NORTH DAKOTA

CITY           SKY/WX    TMP DP  RH WIND       PRES   REMARKS
WILLISTON      PTCLDY   -10 -14  82 CALM      30.31F
MINOT          MOCLDY    -9 -14  78 S8        30.35F WCI -25
MINOT AFB      MOCLDY   -11 -15  80 SW7       30.36F WCI -26
$$

NDZ018>021-031>035-040>046-271200-
SOUTHWEST NORTH DAKOTA

CITY           SKY/WX    TMP DP  RH WIND       PRES   REMARKS
BISMARCK       PTCLDY   -11 -16  78 CALM      30.43F
DICKINSON      CLEAR     -7 -13  75 S9        30.26F WCI -24
GARRISON         N/A    -15 -21  74 CALM      30.36F
HETTINGER ARPT CLEAR     -5 -10  79 CALM      30.29F
$$

NDZ004>008-012>016-024-026-027-054-271200-
NORTHEAST NORTH DAKOTA

CITY           SKY/WX    TMP DP  RH WIND       PRES   REMARKS
GRAND FORKS    PTCLDY   -10 -16  74 SW5       30.44F WCI -22
GRND FRKS AFB  PTCLDY   -12 -19  73 W6        30.44S WCI -26
DEVILS LAKE    PTCLDY   N/A N/A N/A MISG        N/A
$$

NDZ022-023-025-028>030-036>039-047>053-271200-
SOUTHEAST NORTH DAKOTA

CITY           SKY/WX    TMP DP  RH WIND       PRES   REMARKS
FARGO          PTCLDY   -12 -18  74 S7        30.49S WCI -27
JAMESTOWN      PTCLDY   -10 -16  74 W7        30.42S WCI -25
$$




USA.gov is the U.S. government's official web portal to all federal, state and local government web resources and services.